KE6LRO Weather Reports


Display with metric or nautical units.
time (UTC)temp
F
wind
direction
speed
MPH
gust
MPH
rain 1hr
in
rain 24hr
in
rain mn
in
humidity
%
barometer
mb
20260503195153 73 357 3.0 6.0 0.00 0.00 0.00 27 1016.4
20260503194650 73 336 5.0 8.0 0.00 0.00 0.00 30 1016.7
20260503194145 72 10 4.0 8.0 0.00 0.00 0.00 31 1016.4
20260503193643 74 6 1.0 2.0 0.00 0.00 0.00 30 1016.6
20260503193138 73 330 3.0 9.0 0.00 0.00 0.00 29 1016.8
20260503192634 75 332 3.0 6.0 0.00 0.00 0.00 29 1016.8
20260503192130 74 334 4.0 8.0 0.00 0.00 0.00 30 1016.9
20260503191627 73 337 3.0 6.0 0.00 0.00 0.00 28 1016.8
20260503191124 73 346 2.0 7.0 0.00 0.00 0.00 32 1016.9
20260503190621 71 31 0.0 5.0 0.00 0.00 0.00 29 1017.1
20260503190118 71 14 1.0 7.0 0.00 0.00 0.00 32 1017.2
20260503185614 72 337 2.0 6.0 0.00 0.00 0.00 32 1017.3
20260503185114 71 9 5.0 9.0 0.00 0.00 0.00 29 1017.4
20260503184610 73 11 1.0 6.0 0.00 0.00 0.00 33 1017.5
20260503184106 72 344 1.0 5.0 0.00 0.00 0.00 35 1017.6
20260503183603 71 331 0.0 2.0 0.00 0.00 0.00 32 1017.7
20260503183101 70 8 0.0 1.0 0.00 0.00 0.00 36 1017.7
20260503182559 70 9 0.0 3.0 0.00 0.00 0.00 34 1017.8
20260503182057 71 33 1.0 3.0 0.00 0.00 0.00 34 1017.8
20260503181553 71 319 1.0 6.0 0.00 0.00 0.00 36 1017.9
20260503181050 71 341 1.0 3.0 0.00 0.00 0.00 35 1017.9
20260503180547 71 336 3.0 3.0 0.00 0.00 0.00 36 1018.2
20260503180044 70 334 2.0 5.0 0.00 0.00 0.00 37 1018.4
20260503175541 70 339 3.0 5.0 0.00 0.00 0.00 39 1018.3
20260503175039 69 323 3.0 5.0 0.00 0.00 0.00 34 1018.4
20260503174536 69 331 3.0 6.0 0.00 0.00 0.00 39 1018.6
20260503174032 68 304 3.0 5.0 0.00 0.00 0.00 40 1018.5
20260503173527 68 306 3.0 6.0 0.00 0.00 0.00 40 1018.6
20260503173024 68 354 3.0 3.0 0.00 0.00 0.00 41 1018.6
20260503172521 68 341 0.0 5.0 0.00 0.00 0.00 42 1018.7
20260503172018 67 335 0.0 2.0 0.00 0.00 0.00 45 1018.8
20260503171515 67 330 2.0 3.0 0.00 0.00 0.00 42 1019.1
20260503171012 66 326 3.0 3.0 0.00 0.00 0.00 42 1018.8
20260503170508 66 341 2.0 5.0 0.00 0.00 0.00 43 1019.1
20260503150900 48 345 0.0 0.0 0.00 0.00 0.00 80 1020.4
20260503150357 49 345 0.0 1.0 0.00 0.00 0.00 74 1020.5
20260503131250 31 333 0.0 0.0 0.00 0.00 0.00 99 1021.2
20260503130748 31 333 0.0 0.0 0.00 0.00 0.00 99 1021.2
20260503130245 31 333 0.0 0.0 0.00 0.00 0.00 99 1021.2
20260503120211 31 333 0.0 0.0 0.00 0.00 0.00 99 1020.8
20260503110638 33 333 0.0 0.0 0.00 0.00 0.00 99 1021.1
20260503110136 33 333 0.0 0.0 0.00 0.00 0.00 99 1020.8
20260503081452 37 332 0.0 0.0 0.00 0.00 0.00 96 1020.6
20260503080949 37 332 0.0 0.0 0.00 0.00 0.00 96 1020.5
20260503080445 37 332 0.0 0.0 0.00 0.00 0.00 96 1020.5
20260503072922 39 331 0.0 0.0 0.00 0.00 0.00 94 1020.5
20260503072419 39 331 0.0 0.0 0.00 0.00 0.00 94 1020.5
20260503071916 39 331 0.0 0.0 0.00 0.00 0.00 94 1020.6
20260503071413 39 330 0.0 0.0 0.00 0.00 0.00 93 1020.6
20260503070909 40 333 0.0 0.0 0.00 0.00 0.00 93 1020.3
20260503070406 40 332 0.0 0.0 0.00 0.00 0.00 93 1020.4
20260503060332 43 343 0.0 0.0 0.00 0.00 0.00 88 1020.3
20260503054820 44 333 0.0 0.0 0.00 0.00 0.00 87 1020.3
20260503054316 44 334 0.0 0.0 0.00 0.00 0.00 86 1020.2
20260503053814 44 334 0.0 0.0 0.00 0.00 0.00 87 1020.1
20260503053312 44 334 0.0 0.0 0.00 0.00 0.00 85 1020.3
20260503052808 45 334 0.0 0.0 0.00 0.00 0.00 85 1019.9
20260503052306 45 332 0.0 0.0 0.00 0.00 0.00 85 1020.1
20260503051801 45 333 0.0 0.0 0.00 0.00 0.00 84 1020.1
20260503051258 45 333 0.0 0.0 0.00 0.00 0.00 85 1020.3
20260503050754 45 333 0.0 0.0 0.00 0.00 0.00 85 1020.2
20260503050250 45 333 0.0 0.0 0.00 0.00 0.00 84 1020.1
20260503045748 45 332 0.0 0.0 0.00 0.00 0.00 83 1019.9
20260503045246 46 333 0.0 0.0 0.00 0.00 0.00 83 1019.9
20260503044742 46 333 0.0 0.0 0.00 0.00 0.00 82 1019.9
20260503044239 46 333 0.0 0.0 0.00 0.00 0.00 81 1020.1
20260503043736 46 334 0.0 0.0 0.00 0.00 0.00 81 1019.9
20260503043227 46 327 0.0 0.0 0.00 0.00 0.00 80 1019.9
20260503042723 47 327 0.0 0.0 0.00 0.00 0.00 79 1019.9
20260503042220 47 326 0.0 0.0 0.00 0.00 0.00 78 1019.8
20260503041716 48 332 0.0 0.0 0.00 0.00 0.00 77 1019.6
20260503041214 48 333 0.0 0.0 0.00 0.00 0.00 76 1019.9
20260503040711 48 331 0.0 0.0 0.00 0.00 0.00 77 1019.8
20260503040209 49 337 0.0 0.0 0.00 0.00 0.00 74 1019.6
20260503035705 49 336 0.0 0.0 0.00 0.00 0.00 74 1019.7
20260503035203 50 337 0.0 0.0 0.00 0.00 0.00 74 1019.5
20260503034700 50 337 0.0 0.0 0.00 0.00 0.00 71 1019.6
20260503034157 51 331 0.0 0.0 0.00 0.00 0.00 72 1019.4
20260503033654 51 321 0.0 0.0 0.00 0.00 0.00 72 1019.4
20260503033152 52 333 0.0 0.0 0.00 0.00 0.00 70 1019.2
20260503032650 52 332 0.0 0.0 0.00 0.00 0.00 71 1019.1
20260503032148 52 329 0.0 0.0 0.00 0.00 0.00 70 1018.8
20260503031645 53 328 0.0 0.0 0.00 0.00 0.00 69 1018.9
20260503031143 53 331 0.0 0.0 0.00 0.00 0.00 67 1018.7
20260503030638 54 331 0.0 0.0 0.00 0.00 0.00 65 1018.7
20260503030135 55 332 0.0 0.0 0.00 0.00 0.00 65 1018.5
20260503025632 55 331 0.0 0.0 0.00 0.00 0.00 65 1018.4
20260503025130 56 330 0.0 0.0 0.00 0.00 0.00 64 1018.5
20260503024626 56 330 0.0 0.0 0.00 0.00 0.00 63 1018.4
20260503024123 57 336 0.0 0.0 0.00 0.00 0.00 60 1018.4
20260503023621 58 336 0.0 0.0 0.00 0.00 0.00 60 1018.4
20260503023118 58 321 0.0 0.0 0.00 0.00 0.00 58 1018.3
20260503022613 59 329 0.0 0.0 0.00 0.00 0.00 58 1018.4
20260503022108 61 329 0.0 0.0 0.00 0.00 0.00 55 1018.2
20260503021606 62 331 0.0 0.0 0.00 0.00 0.00 51 1018.2
20260503021102 63 355 0.0 2.0 0.00 0.00 0.00 48 1018.1
20260503020559 63 335 0.0 5.0 0.00 0.00 0.00 42 1017.9
20260503020056 64 327 0.0 1.0 0.00 0.00 0.00 44 1017.8
20260503015553 65 315 1.0 2.0 0.00 0.00 0.00 41 1018.1
20260503015050 66 328 2.0 2.0 0.00 0.00 0.00 42 1017.6
20260503014546 66 315 2.0 5.0 0.00 0.00 0.00 40 1017.9
20260503014044 67 323 1.0 2.0 0.00 0.00 0.00 37 1017.6
20260503013541 69 327 1.0 1.0 0.00 0.00 0.00 40 1017.7
20260503013039 70 310 0.0 2.0 0.00 0.00 0.00 37 1017.8
20260503012536 70 27 4.0 5.0 0.00 0.00 0.00 33 1017.7
20260503012032 72 325 0.0 0.0 0.00 0.00 0.00 38 1017.8
20260503011529 72 316 1.0 3.0 0.00 0.00 0.00 34 1017.9
20260503011026 73 329 0.0 5.0 0.00 0.00 0.00 30 1017.7
20260503010522 73 326 0.0 3.0 0.00 0.00 0.00 33 1017.6
20260503010020 72 325 0.0 2.0 0.00 0.00 0.00 34 1017.7
20260503005517 72 2 2.0 6.0 0.00 0.00 0.00 26 1017.8
20260503005014 72 326 1.0 2.0 0.00 0.00 0.00 32 1017.8
20260503004510 72 350 0.0 1.0 0.00 0.00 0.00 26 1017.9
20260503004009 72 353 2.0 6.0 0.00 0.00 0.00 26 1018.2
20260503003505 73 329 0.0 1.0 0.00 0.00 0.00 30 1018.1
20260503003002 73 331 1.0 3.0 0.00 0.00 0.00 30 1018.1
20260503002459 73 305 1.0 2.0 0.00 0.00 0.00 27 1017.9
20260503001955 72 317 1.0 1.0 0.00 0.00 0.00 34 1018.1
20260503001452 72 358 0.0 0.0 0.00 0.00 0.00 28 1018.1
20260503000949 73 333 2.0 3.0 0.00 0.00 0.00 24 1018.3
20260503000446 73 306 0.0 1.0 0.00 0.00 0.00 26 1018.1
20260502235944 73 323 2.0 5.0 0.00 0.00 0.00 24 1018.2
20260502235440 73 8 2.0 3.0 0.00 0.00 0.00 25 1018.1
20260502234938 74 326 0.0 5.0 0.00 0.00 0.00 25 1018.1
20260502234434 75 312 4.0 6.0 0.00 0.00 0.00 25 1018.2
20260502233932 74 325 1.0 2.0 0.00 0.00 0.00 24 1018.3
20260502233426 72 320 1.0 3.0 0.00 0.00 0.00 23 1018.4
20260502232924 69 321 1.0 3.0 0.00 0.00 0.00 30 1018.3
20260502232420 67 288 2.0 3.0 0.00 0.00 0.00 36 1018.4
20260502231918 67 319 0.0 1.0 0.00 0.00 0.00 39 1018.5
20260502231415 70 309 2.0 2.0 0.00 0.00 0.00 41 1018.6
20260502230913 70 332 0.0 0.0 0.00 0.00 0.00 26 1018.7
20260502230411 71 325 0.0 2.0 0.00 0.00 0.00 25 1018.7
20260502225908 72 313 5.0 8.0 0.00 0.00 0.00 24 1018.7
20260502225404 71 326 0.0 0.0 0.00 0.00 0.00 26 1018.7
20260502224901 72 331 0.0 2.0 0.00 0.00 0.00 27 1018.9
20260502224357 72 314 1.0 2.0 0.00 0.00 0.00 25 1018.8
20260502223855 74 325 0.0 2.0 0.00 0.00 0.00 25 1019.1
20260502223352 74 335 2.0 2.0 0.00 0.00 0.00 25 1019.1
20260502222850 74 325 1.0 6.0 0.00 0.00 0.00 24 1018.9
20260502222348 73 349 4.0 5.0 0.00 0.00 0.00 22 1019.3
20260502221843 74 345 1.0 6.0 0.00 0.00 0.00 25 1019.1
20260502221339 74 299 4.0 6.0 0.00 0.00 0.00 23 1019.2
20260502220837 74 359 2.0 5.0 0.00 0.00 0.00 24 1019.3
20260502220332 73 326 3.0 5.0 0.00 0.00 0.00 23 1019.4
20260502215829 74 306 1.0 11.0 0.00 0.00 0.00 25 1019.3
20260502215327 74 286 3.0 6.0 0.00 0.00 0.00 24 1019.5
20260502214824 74 0 5.0 7.0 0.00 0.00 0.00 24 1019.6
20260502214320 73 353 0.0 3.0 0.00 0.00 0.00 27 1019.6
20260502213817 73 17 5.0 6.0 0.00 0.00 0.00 23 1019.6
20260502213314 74 339 3.0 5.0 0.00 0.00 0.00 24 1019.7
20260502212814 74 345 6.0 8.0 0.00 0.00 0.00 24 1019.8
20260502212311 74 332 1.0 3.0 0.00 0.00 0.00 25 1020.1
20260502211808 74 348 3.0 8.0 0.00 0.00 0.00 25 1020.1
20260502211304 73 291 3.0 5.0 0.00 0.00 0.00 24 1020.1
20260502210801 73 30 2.0 6.0 0.00 0.00 0.00 23 1020.2
20260502210259 72 15 4.0 7.0 0.00 0.00 0.00 25 1019.9
20260502205756 72 7 2.0 9.0 0.00 0.00 0.00 26 1020.1
20260502205251 72 351 1.0 8.0 0.00 0.00 0.00 24 1020.3
20260502204749 73 351 4.0 5.0 0.00 0.00 0.00 24 1019.8
20260502204246 72 344 0.0 3.0 0.00 0.00 0.00 26 1020.2
20260502203744 74 286 0.0 5.0 0.00 0.00 0.00 24 1020.3
20260502203242 73 288 1.0 8.0 0.00 0.00 0.00 25 1020.5
20260502202735 73 345 3.0 7.0 0.00 0.00 0.00 24 1020.3
20260502202234 71 10 4.0 8.0 0.00 0.00 0.00 25 1020.3
20260502201731 72 344 1.0 8.0 0.00 0.00 0.00 25 1020.5
20260502201227 73 335 3.0 8.0 0.00 0.00 0.00 26 1020.4
20260502200723 72 337 5.0 9.0 0.00 0.00 0.00 25 1020.4
20260502200220 72 347 0.0 5.0 0.00 0.00 0.00 27 1020.3
20260502195719 72 334 2.0 6.0 0.00 0.00 0.00 25 1020.6